Stations météo

réclame
Mon MeteoGroup
Stockholm/Arlanda, Suède (2460): Température de l'air & dewpoint: 19.02.2018 06:00:00 - 25.02.2018 06:00:00 (CET)Stockholm/Arlanda, Suède (2460): Vitesse du vent: 19.02.2018 06:00:00 - 25.02.2018 06:00:00 (CET)Stockholm/Arlanda, Suède (2460): Direction du vent: 19.02.2018 06:00:00 - 25.02.2018 06:00:00 (CET)Stockholm/Arlanda, Suède (2460): reduced air pressure: 19.02.2018 06:00:00 - 25.02.2018 06:00:00 (CET)Stockholm/Arlanda, Suède (2460): visibility: 19.02.2018 06:00:00 - 25.02.2018 06:00:00 (CET)
Date & Time tt [°C] td [°C] ff [km/h] ff [knt] dd ppp [hPa] vv [km]
25.02.2018 06:00:00 -12,9 -14,4 7 4 N 1040,0 2,5
25.02.2018 05:00:00 -13,8 -15,4 4 2 N 1039,8 2,3
25.02.2018 04:00:00 -14,3 -15,8 7 4 NNW 1039,8 50
25.02.2018 03:00:00 -12,9 -14,5 4 2 N 1039,7 50
25.02.2018 02:00:00 -11,7 -13,1 7 4 NNE 1039,8 50
25.02.2018 01:00:00 -12,0 -13,3 7 4 N 1039,7 45
25.02.2018 00:00:00 -11,2 -12,7 11 6 N 1039,5 11
24.02.2018 23:00:00 -10,2 -11,9 7 4 N 1039,2 19
24.02.2018 22:00:00 -10,1 -11,8 7 4 N 1039,1 40
24.02.2018 21:00:00 -9,5 -11,4 7 4 N 1039,1 50
24.02.2018 20:00:00 -9,2 -10,5 7 4 N 1039,0 45
24.02.2018 19:00:00 -8,6 -10,4 7 4 N 1038,9 50
24.02.2018 18:00:00 -7,1 -9,0 4 2 N 1038,9 35
24.02.2018 17:00:00 -6,9 -9,8 7 4 N 1038,8 28
24.02.2018 16:00:00 -5,9 -9,6 7 4 N 1038,8 8
24.02.2018 15:00:00 -5,6 -9,8 11 6 NNE 1038,9 22
24.02.2018 14:00:00 -5,8 -9,0 11 6 N 1039,0 10
24.02.2018 13:00:00 -5,9 -10,0 14 8 NNE 1039,2 40
24.02.2018 12:00:00 -6,3 -8,6 11 6 NNE 1039,4 24
24.02.2018 11:00:00 -7,5 -8,7 7 4 WNW 1039,6 4,4
24.02.2018 10:00:00 -8,1 -9,3 4 2 NNW 1039,4 5
24.02.2018 09:00:00 -10,2 -11,5 7 4 NNW 1039,4 27
24.02.2018 08:00:00 -13,7 -15,5 0 0 N 1039,0 30
24.02.2018 07:00:00 -15,0 -17,0 0 0 N 1038,8 40
24.02.2018 06:00:00 -13,9 -15,5 4 2 NW 1038,6 45
24.02.2018 05:00:00 -14,0 -15,8 7 4 N 1037,9 40
24.02.2018 04:00:00 -12,0 -13,4 7 4 N 1037,3 45
24.02.2018 03:00:00 -12,4 -13,8 11 6 NNE 1036,7 7
24.02.2018 02:00:00 -11,9 -13,3 7 4 N 1036,5 40
24.02.2018 01:00:00 -11,4 -12,8 11 6 N 1035,9 40
24.02.2018 00:00:00 -10,1 -11,1 11 6 NNW 1035,4 18
23.02.2018 23:00:00 -9,8 -10,9 11 6 NNE 1034,8 26
23.02.2018 22:00:00 -9,4 -10,5 7 4 N 1034,4 7
23.02.2018 21:00:00 -8,4 -9,7 7 4 NNW 1033,8 25
23.02.2018 20:00:00 -8,4 -10,3 7 4 NNE 1033,1 45
23.02.2018 19:00:00 -8,6 -9,7 7 4 N 1032,5 45
23.02.2018 18:00:00 -6,4 -7,8 7 4 NE 1031,8 4,5
23.02.2018 17:00:00 -5,2 -7,6 7 4 NE 1031,1 40
23.02.2018 16:00:00 -4,0 -5,8 11 6 NNE 1029,9 12
23.02.2018 15:00:00 -4,4 -5,6 14 8 NNE 1029,3 0,6
23.02.2018 14:00:00 -3,4 -6,0 14 8 N 1028,7 5
23.02.2018 13:00:00 -3,5 -8,6 18 10 N 1028,4 40
23.02.2018 12:00:00 -3,5 -7,8 18 10 N 1028,0 30
23.02.2018 11:00:00 -3,5 -6,6 18 10 N 1027,7 35
23.02.2018 10:00:00 -3,9 -6,7 14 8 N 1027,3 14
23.02.2018 09:00:00 -4,5 -6,9 11 6 NNW 1026,8 30
23.02.2018 08:00:00 -5,3 -6,5 7 4 NNW 1026,3 13
23.02.2018 07:00:00 -5,7 -6,9 7 4 N 1026,1 13
23.02.2018 06:00:00 -5,3 -6,5 4 2 N 1025,7 14
23.02.2018 05:00:00 -5,3 -7,0 4 2 N 1025,4 13
23.02.2018 04:00:00 -5,1 -6,6 4 2 N 1025,6 14
23.02.2018 03:00:00 -5,2 -7,2 4 2 NNE 1025,8 16
23.02.2018 02:00:00 -5,3 -7,3 4 2 E 1025,9 15
23.02.2018 01:00:00 -5,6 -7,7 4 2 ESE 1026,1 16
23.02.2018 00:00:00 -5,5 -7,6 7 4 ESE 1026,4 18
22.02.2018 23:00:00 -5,0 -7,1 0 0 N 1026,6 15
22.02.2018 22:00:00 -5,2 -7,6 4 2 S 1026,8 13
22.02.2018 21:00:00 -5,9 -8,6 0 0 N 1027,0 8
22.02.2018 20:00:00 -6,3 -8,7 0 0 N 1027,4 21
22.02.2018 19:00:00 -6,0 -9,4 0 0 N 1027,6 26
22.02.2018 18:00:00 -6,1 -9,5 4 2 WSW 1027,8 28
22.02.2018 17:00:00 -4,6 -9,6 4 2 WSW 1027,7 30
22.02.2018 16:00:00 -3,7 -9,5 7 4 W 1027,9 45
22.02.2018 15:00:00 -3,1 -9,1 7 4 SW 1028,3 40
22.02.2018 14:00:00 -3,1 -8,2 7 4 W 1028,8 40
22.02.2018 13:00:00 -2,9 -7,8 4 2 WSW 1029,2 30
22.02.2018 12:00:00 -1,6 -7,1 0 0 N 1029,3 27
22.02.2018 11:00:00 -4,7 -6,5 0 0 N 1029,8 16
22.02.2018 10:00:00 -5,8 -7,0 4 2 WSW 1029,9 7
22.02.2018 09:00:00 -6,3 -7,5 4 2 N 1029,9 2,8
22.02.2018 08:00:00 -7,3 -8,5 0 0 N 1030,0 3,8
22.02.2018 07:00:00 -7,8 -9,0 4 2 NNW 1029,8 4,1
22.02.2018 06:00:00 -8,1 -9,3 0 0 N 1029,7 14
22.02.2018 05:00:00 -8,6 -9,8 0 0 N 1029,8 18
22.02.2018 04:00:00 -9,0 -10,1 0 0 N 1029,7 14
22.02.2018 03:00:00 -9,4 -10,5 0 0 N 1029,8 20
22.02.2018 02:00:00 -10,0 -11,3 0 0 N 1030,1 23
22.02.2018 01:00:00 -11,0 -12,5 0 0 N 1029,9 26
22.02.2018 00:00:00 -11,6 -13,0 4 2 N 1029,8 22
21.02.2018 23:00:00 -10,6 -11,6 0 0 N 1029,8 19
21.02.2018 22:00:00 -9,4 -10,5 7 4 N 1029,7 14
21.02.2018 21:00:00 -8,2 -9,5 0 0 N 1029,3 25
21.02.2018 20:00:00 -8,1 -9,7 0 0 N 1029,0 12
21.02.2018 19:00:00 -7,8 -9,7 4 2 NNW 1028,5 35
21.02.2018 18:00:00 -8,9 -10,5 7 4 N 1028,2 45
21.02.2018 17:00:00 -7,0 -9,6 4 2 NNW 1027,6 50
21.02.2018 16:00:00 -4,2 -9,4 7 4 NNE 1027,5 45
21.02.2018 15:00:00 -3,6 -9,2 7 4 NNE 1027,4 45
21.02.2018 14:00:00 -3,5 -9,3 4 2 NNW 1027,5 40
21.02.2018 13:00:00 -3,7 -8,7 4 2 SSE 1027,7 30
21.02.2018 12:00:00 -4,3 -8,4 4 2 WNW 1027,6 45
21.02.2018 11:00:00 -4,8 -8,5 0 0 N 1027,5 35
21.02.2018 10:00:00 -6,3 -8,0 0 0 N 1027,7 14
21.02.2018 09:00:00 -7,3 -8,9 4 2 N 1027,2 19
21.02.2018 08:00:00 -8,1 -9,3 0 0 N 1027,0 13
21.02.2018 07:00:00 -8,6 -9,7 0 0 N 1026,8 11
21.02.2018 06:00:00 -8,5 -9,5 4 2 N 1026,7 10
21.02.2018 05:00:00 -8,4 -9,6 0 0 N 1027,1 11
21.02.2018 04:00:00 -8,8 -10,0 4 2 W 1027,3 10
21.02.2018 03:00:00 -8,5 -9,6 0 0 N 1027,4 11
21.02.2018 02:00:00 -8,5 -9,6 0 0 N 1027,5 11
21.02.2018 01:00:00 -8,2 -9,4 0 0 N 1027,7 18
21.02.2018 00:00:00 -8,3 -9,4 4 2 N 1028,2 13
20.02.2018 23:00:00 -8,6 -9,8 4 2 NNW 1028,1 10
20.02.2018 22:00:00 -9,3 -10,4 4 2 N 1028,0 12
20.02.2018 21:00:00 -10,2 -11,5 4 2 NNW 1028,1 13
20.02.2018 20:00:00 -10,8 -11,8 0 0 N 1028,2 10
20.02.2018 19:00:00 -9,7 -10,8 4 2 NNW 1028,3 23
20.02.2018 18:00:00 -8,8 -10,1 0 0 N 1028,0 28
20.02.2018 17:00:00 -6,7 -10,6 4 2 NW 1027,9 50
20.02.2018 16:00:00 -4,9 -9,5 4 2 N 1028,1 40
20.02.2018 15:00:00 -4,3 -9,7 7 4 N 1028,2 22
20.02.2018 14:00:00 -4,0 -9,8 7 4 ENE 1028,5 30
20.02.2018 13:00:00 - - - - - - -
20.02.2018 12:00:00 -4,5 -10,9 11 6 NE 1028,9 26
20.02.2018 11:00:00 -4,3 -10,1 4 2 NE 1028,9 28
20.02.2018 10:00:00 -5,2 -9,5 4 2 N 1029,0 7
20.02.2018 09:00:00 -6,2 -8,3 4 2 N 1029,0 26
20.02.2018 08:00:00 -5,8 -7,5 7 4 NE 1028,7 11
20.02.2018 07:00:00 -5,7 -6,9 7 4 NE 1028,6 7
20.02.2018 06:00:00 -5,5 -6,5 7 4 N 1028,5 5
20.02.2018 05:00:00 -5,5 -6,7 7 4 N 1028,4 4,8
20.02.2018 04:00:00 -5,4 -6,6 7 4 NNW 1028,5 6
20.02.2018 03:00:00 -5,4 -6,4 7 4 NNW 1028,7 3,5
20.02.2018 02:00:00 -5,3 -6,5 7 4 NNW 1028,9 2,4
20.02.2018 01:00:00 -5,2 -6,9 7 4 N 1028,8 6
20.02.2018 00:00:00 -5,1 -6,9 7 4 N 1028,8 10
19.02.2018 23:00:00 -5,0 -6,8 7 4 N 1028,8 4,3
19.02.2018 22:00:00 -4,8 -6,6 7 4 N 1028,6 12
19.02.2018 21:00:00 -4,6 -7,0 7 4 N 1028,7 15
19.02.2018 20:00:00 -4,4 -6,2 7 4 NNE 1028,5 13
19.02.2018 19:00:00 -4,2 -6,0 11 6 NNE 1028,3 11
19.02.2018 18:00:00 -4,1 -5,6 7 4 NNE 1027,9 11
19.02.2018 17:00:00 -4,0 -5,8 7 4 NNE 1027,9 5
19.02.2018 16:00:00 -3,9 -6,4 7 4 NNE 1027,5 10
19.02.2018 15:00:00 -3,7 -6,3 11 6 NE 1027,2 16
19.02.2018 14:00:00 -3,3 -6,6 14 8 NE 1026,9 14
19.02.2018 13:00:00 -3,4 -6,5 11 6 ENE 1026,7 12
19.02.2018 12:00:00 -3,5 -7,3 14 8 E 1026,5 19
19.02.2018 11:00:00 -3,7 -6,6 11 6 ENE 1026,1 18
19.02.2018 10:00:00 -4,0 -6,1 11 6 ENE 1025,7 10
19.02.2018 09:00:00 -3,8 -5,3 14 8 NE 1025,5 9
19.02.2018 08:00:00 -3,8 -5,1 14 8 NE 1024,6 9
19.02.2018 07:00:00 -3,5 -4,5 14 8 NE 1024,0 7
19.02.2018 06:00:00 -3,2 -4,0 14 8 NE 1023,4 5

tt = Température de l'air
td = dewpoint
ff = Vitesse du vent
dd = Direction du vent
ppp = reduced air pressure
vv = visibility

stations d'obs. à proximité